Other Public Products
Issued by NWS Grand Forks, ND

Home | Current Version | Previous Version | Graphics & Text | Print | Product List | Glossary On
Versions: 1 2 3 4 5 6 7 8 9 10 11 12 13 14 15 16 17 18 19 20 21 22 23 24 25 26 27 28 29 30 31 32 33 34 35 36 37 38 39 40 41 42 43 44 45 46 47 48 49 50
000
FPUS83 KFGF 260531
OPUFGF
PRAIRIE TO PINES WEATHER ROUNDUP
NATIONAL WEATHER SERVICE EASTERN NORTH DAKOTA/GRAND FORKS ND
1200 AM CDT TUE SEP 26 2017

 **SATELLITE DATA USED TO AUGMENT SKY COVER AT AUTOMATED STATIONS**
 *****  WEATHER ACROSS EASTERN NORTH DAKOTA  *****

CITY           SKY/WX    TMP DP  RH WIND       PRES   REMARKS
GRAND FORKS    CLOUDY    51  48  89 N7        30.09F
GRAND FORKS AF MOCLDY    50  46  87 N8        30.10F
GRAND CITY NWS NOT AVBL
BUXTON           N/A     50  48  93 N2          N/A
DEVILS LAKE    FAIR      44  42  93 N3        30.13S
FARGO          LGT RAIN  51  50  96 N9        30.07S
WAHPETON ARPT  CLOUDY    50  46  87 N7        30.05S
$$

 *****  WEATHER ACROSS CENTRAL AND WESTERN NORTH DAKOTA  *****

CITY           SKY/WX    TMP DP  RH WIND       PRES   REMARKS
JAMESTOWN      CLOUDY    48  44  86 CALM      30.12R
BISMARCK       CLOUDY    48  46  93 E3        30.13F
MINOT          CLOUDY    50  44  80 CALM      30.11F
MINOT AFB      CLOUDY    49  45  87 CALM      30.11S
GARRISON         N/A     47  44  90 E6        30.12S
WILLISTON      CLOUDY    47  45  93 CALM      30.11F
DICKINSON      CLOUDY    45  44  97 E6        30.09S FOG
HETTINGER      CLOUDY    45  41  86 E7        30.12S
$$

 *****  OTHER OBSERVATIONS NORTHEAST NORTH DAKOTA  *****

CITY           SKY/WX    TMP DP  RH WIND       PRES   REMARKS
WALHALLA       FAIR     N/A N/A N/A NE7       30.12F
LANGDON        CLOUDY    46  46 100 E8        30.13S
CAVALIER       CLOUDY    50  46  87 N6        30.12F
GRAFTON        MOCLDY    50  48  93 N9        30.13S
CANDO          FAIR      41  41 100 N6        30.16R
FORT TOTTEN      N/A     47  42  83 E2        29.95S
ROLLA          FAIR      41  41 100 CALM      30.14S
RUGBY          CLOUDY    46  46 100 E3        30.13S
 ***** THE ABOVE OBSERVATIONS ARE NON NWS ARE NOT QUALITY
        CONTROLLED AND MAY MIS-REPORT RAIN FOR SNOW...
$$

 *****  OTHER OBSERVATIONS SOUTHEAST NORTH DAKOTA *****

CITY           SKY/WX    TMP DP  RH WIND       PRES   REMARKS
COOPERSTOWN    CLOUDY    48  45  87 N8        30.11S
VALLEY CITY    LGT RAIN  48  48 100 N6        30.13R
OAKES          NOT AVBL
GWINNER        CLOUDY    48  46  93 NW7       30.09S
SHEYENNE NWR     N/A     50  49  96 N5        29.95S
BUFFALO          N/A     49  45  86 SW9         N/A
WYNDMERE       NOT AVBL
 ***** THE ABOVE OBSERVATIONS ARE NON NWS ARE NOT QUALITY
       CONTROLLED AND MAY MIS-REPORT RAIN FOR SNOW...
$$

  *****  WEATHER ACROSS NORTHERN MINNESOTA  *****

CITY           SKY/WX    TMP DP  RH WIND       PRES   REMARKS
FLAG ISLAND    FAIR      52  46  82 NE9       30.08F
WARROAD        CLOUDY    54  48  82 NE9       30.09F
ROSEAU           N/A     50  45  81 N5        30.10S HAZE
HALLOCK          N/A     52  48  87 N6        30.12S
THF RVR FALLS  MOCLDY    50  48  93 N8        30.09F
HALSTAD          N/A     50  48  93 N7          N/A
FOSSTON        DRIZZLE   48  46  93 N7        30.07F
BAUDETTE       FAIR      50  48  93 NE8       30.08S
WASKISH        FAIR      48  48 100 NE3       30.06F
CROOKSTON      CLOUDY    52  48  87 N7        30.09F
$$
  *****  WEATHER ACROSS CENTRAL AND WEST MINNESOTA  *****

CITY           SKY/WX    TMP DP  RH WIND       PRES   REMARKS
BEMIDJI        DRIZZLE   49  49  97 N5        30.05F
PARK RAPIDS    LGT RAIN  53  50  89 N8        30.04F
WADENA         LGT RAIN  52  52 100 N7        30.02F
DETROIT LAKES  LGT RAIN  50  50 100 N3        30.05F
MOORHEAD       LGT RAIN  50  48  93 N7        30.07S
FERGUS FALLS   LGT RAIN  52  52 100 N5        30.04S
ELBOW LAKE     DRIZZLE   52  52 100 N5        30.02F
MORRIS MN      NOT AVBL
STAPLES        DRIZZLE   52  52 100 N5        30.02S
WHEATON        LGT RAIN  50  48  93 NW7       30.05F
$$
  *****  WEATHER ELSEWHERE ACROSS MINNESOTA  *****

CITY           SKY/WX    TMP DP  RH WIND       PRES   REMARKS
DULUTH         LGT RAIN  54  54 100 NE7       29.99S FOG
INTRNTL FALLS  CLOUDY    52  47  83 E9        30.06F
ELY            DRIZZLE   52  52 100 NE7       30.03S
CLOQUET        RAIN      55  54  94 N3        29.98F
BRAINERD       LGT RAIN  53  52  96 N10       30.00S FOG
HIBBING        LGT RAIN  52  51  97 N5        30.02F
ALEXANDRIA     LGT RAIN  53  53 100 N10       30.01F
SAINT CLOUD    LGT RAIN  55  55 100 CALM      29.98F FOG
MINNEAPOLIS    LGT RAIN  58  58 100 N9        29.95F
$$

  *****  WEATHER ACROSS SOUTH DAKOTA  *****

CITY           SKY/WX    TMP DP  RH WIND       PRES   REMARKS
SIOUX FALLS    CLOUDY    53  52  96 NW10      30.01S
BROOKINGS      LGT RAIN  49  49 100 N9        30.02F FOG
WATERTOWN      LGT RAIN  48  48 100 N10       30.03F
HURON          RAIN      49  48  97 N9        30.06F
SISSETON         N/A     50  49  96 NW13      30.04F
ABERDEEN       RAIN      48  47  96 N5        30.09F
MITCHELL       LGT RAIN  50  49  96 N9        30.07S
PIERRE         CLOUDY    49  45  86 NE8       30.10F
MOBRIDGE       CLOUDY    49  44  83 E6        30.09S
RAPID CITY     NOT AVBL
$$

  *****  SOME WEATHER IN NEARBY STATES *****

CITY           SKY/WX    TMP DP  RH WIND       PRES   REMARKS
GLASGOW MT     FAIR      42  39  89 SE9       30.07S
GREAT FALLS MT CLOUDY    52  37  56 SE6       30.05R
CHEYENNE WY    CLOUDY    42  39  89 S5        30.16S
SCOTTSBLUFF NE CLOUDY    45  41  86 E7        30.13R
OMAHA NE       LGT RAIN  59  56  89 NW6       29.96F FOG
DES MOINES IA  CLOUDY    67  65  93 W14       29.95R
DAVENPORT IA   FAIR      72  65  78 CALM      29.94R
CHICAGO IL     FAIR      75  58  55 S5        29.93S
EAU CLAIRE WI  CLOUDY    63  62  97 NE3       29.93F
LA CROSSE WI   MOCLDY    69  67  93 S3        29.93S
$$

  *****  SOME NATIONAL WEATHER *****

CITY           SKY/WX    TMP DP  RH WIND       PRES   REMARKS
LA GUARDIA NY  FAIR      71  66  84 SE5       30.02S
RALEIGH NC     MOCLDY    71  67  87 NE6       29.94S
ATLANTA GA     FAIR      75  61  61 N5        29.98S
NEW ORLEANS LA FAIR      79  75  87 E5        29.89R
OKLAHOMA CITY  CLOUDY    70  69  97 N7        29.94R
ALBUQUERQUE NM FAIR      63  48  58 E15       30.00R
SALT LAKE CITY FAIR      48  38  68 S6        30.12S
LOS ANGELES CA FAIR      69  58  67 W6        29.79S
BOISE ID       CLOUDY    54  38  54 E5        30.08S
SEATTLE WA     CLOUDY    62  53  72 NW3       30.13R
$$

*** WEATHER ACROSS MANITOBA...SASKATCHEWAN AND ONTARIO ***
                ***ONTARIO***

CITY           SKY/WX    TMP DP  RH WIND       PRES   REMARKS
GERALDTON      DRIZZLE   48  46  93 NE6       30.10S
THUNDER BAY    CLOUDY    54  48  82 VRB2      30.05R
SIOUX LOOKOUT  CLOUDY    48  46  93 CALM      30.12R
TORONTO        PTCLDY    75  66  73 N6        30.00S
BIG TROUT LK   MOCLDY    39 N/A N/A N3        30.22S
PICKLE LAKE    NOT AVBL
DRYDEN         CLOUDY    48  48 100 NE9       30.11S
KENORA         CLOUDY    48  46  93 NE7       30.11S
$$
                *** MANITOBA***

CITY           SKY/WX    TMP DP  RH WIND       PRES   REMARKS
BRANDON        PTCLDY    41  39  93 NE5       30.15S
DAUPHIN        CLEAR     37  37 100 SW5       30.15F
ISLAND LAKE    NOT AVBL
PILOT MOUND      N/A     43  37  81 NE6         N/A
THE PAS        PTCLDY    46  43  87 SE10      30.09S
THOMPSON       PTCLDY    34  32  93 E5        30.15F
WINNIPEG       MOCLDY    48  45  87 NE6       30.15S
LYNN LAKE      LGT RAIN  46  41  81 S7        30.02F
CHURCHILL      CLEAR     36  30  80 S9        30.19R
GILLAM         CLEAR     30  27  86 SE6       30.21S WCI  24
$$
                ***SASKATCHEWAN***

CITY           SKY/WX    TMP DP  RH WIND       PRES   REMARKS
ESTEVAN        CLOUDY    46  45  93 S3        30.12F
KINDERSLEY     PTCLDY    50  34  53 CALM      29.96S
LLOYDMINSTER   CLEAR     52  41  66 SW8       29.92S
PRINCE ALBERT  CLOUDY    54  34  47 S12G22    30.03R
REGINA         PTCLDY    45  39  81 S13       30.09S
YORKTON        CLOUDY    50  39  66 S9        30.12S


USA.gov is the U.S. government's official web portal to all federal, state and local government web resources and services.